Location: Diguira
(13.1838°N, 4.9109°W)
Time: 17:18:08
(UTC+00:00)

Cosmos 1464 Rocket - Pass Details

Date: 18 September 2020
Orbit: 953 x 1000 km, 82.9° (Epoch: 25 October)

Event Time Altitude Azimuth Distance (km) Brightness Sun altitude
Rises 19:32:00 0° 183° (S) 3,627 7.0 -18.7°
Reaches altitude 10° 19:34:29 10° 183° (S) 2,678 6.3 -19.3°
Maximum altitude 19:40:37 90° 250° (WSW) 956 3.9 -20.8°
Drops below altitude 10° 19:46:44 10° 4° (N) 2,676 6.3 -22.3°
Sets 19:49:14 0° 4° (N) 3,624 7.0 -22.9°
